Location: Newark
(43.9494°N, 6.8108°E)
Time: 02:13:04
(UTC+00:00)

A-11 Canister half - Pass Details

Date: 31 October 2019
Orbit: 1514 x 1686 km, 47.2° (Epoch: 14 November)

Event Time Altitude Azimuth Distance (km) Brightness Sun altitude
Rises 03:45:45 0° 292° (WNW) 4,883 - -25.9°
Reaches altitude 10° 03:48:56 10° 291° (WNW) 3,874 - -25.3°
Exits shadow 03:54:11 37° 286° (WNW) 2,330 9.4 -24.4°
Maximum altitude 03:58:47 78° 207° (SSW) 1,621 8.9 -23.6°
Drops below altitude 10° 04:08:15 10° 123° (ESE) 3,728 11.8 -21.9°
Sets 04:11:15 0° 122° (ESE) 4,691 12.5 -21.3°
